Weather History for Jamestown, ND

Change the Weather History Date:

Thursday, July 18, 2013

  Actual Average Record
Temperature  
Mean Temperature 80 °F 70 °F  
Max Temperature 93 °F 83 °F 106 °F (1936)
Min Temperature 66 °F 58 °F 42 °F (1912)
Degree Days  
Heating Degree Days 0 1  
Month to date heating degree days 0 18  
Since 1 June heating degree days 85 115  
Since 1 July heating degree days 0 18  
Cooling Degree Days 15 6  
Month to date cooling degree days 161 97  
Year to date cooling degree days 272 197  
Since 1 June cooling degree days 261 177  
Growing Degree Days 28 (Base 50)    
Moisture  
Dew Point 67 °F    
Average Humidity 72    
Maximum Humidity 97    
Minimum Humidity 47    
Precipitation  
Precipitation 0.00 in 0.11 in 2.03 in (1962)
Month to date precipitation 0.20 2.16  
Year to date precipitation 7.55 10.90  
Sea Level Pressure  
Sea Level Pressure 29.81 in    
Wind  
Wind Speed 11 mph (WSW)    
Max Wind Speed 21 mph    
Max Gust Speed 26 mph    
Visibility 10 miles    
Events      
T = Trace of Precipitation, MM = Missing Value Source: NWS Daily Summary

Daily Weather History Graph

Daily Weather History Graph

Search for Another Location

Airport:

Trip Planner

Search our weather history database for the weather conditions in past years. The results will help you decide how hot, cold, wet, or windy it might be!

Date:

Astronomy

Jul. 18, 2013 Rise Set
Actual Time 5:58 AM CDT 9:22 PM CDT
Civil Twilight 5:20 AM CDT 10:00 PM CDT
Nautical Twilight 4:31 AM CDT 10:49 PM CDT
Astronomical Twilight 3:27 AM CDT 11:52 PM CDT
Moon 5:19 PM CDT (7/18) 1:54 AM CDT (7/18)
Length of Visible Light 16h 39m
Length of Day
15h 24m
Waxing Gibbous, 77% of the Moon is Illuminated
Jul 18
Waxing Gibbous
Jul 22
Full
Jul 29
Last Quarter
Aug 6
New
Aug 14
First Quarter

Hourly Weather History & Observations

Time (CDT) Temp. Heat Index Dew Point Humidity Pressure Visibility Wind Dir Wind Speed Gust Speed Precip Events Conditions
12:56 AM 69.1 °F - 62.1 °F 78% 30.00 in 10.0 mi East 9.2 mph - N/A   Clear
1:56 AM 66.9 °F - 63.0 °F 87% 29.97 in 10.0 mi East 9.2 mph - N/A   Clear
2:56 AM 66.0 °F - 63.0 °F 90% 29.93 in 10.0 mi ESE 4.6 mph - N/A   Clear
3:56 AM 69.1 °F - 66.0 °F 90% 29.89 in 10.0 mi SSE 9.2 mph - N/A   Clear
4:56 AM 70.0 °F - 68.0 °F 93% 29.86 in 10.0 mi South 8.1 mph - N/A   Clear
5:56 AM 69.1 °F - 66.9 °F 93% 29.85 in 10.0 mi South 6.9 mph - N/A   Clear
6:56 AM 70.0 °F - 66.9 °F 90% 29.84 in 10.0 mi South 9.2 mph - N/A   Clear
7:56 AM 73.9 °F - 68.0 °F 82% 29.82 in 10.0 mi South 10.4 mph - N/A   Clear
8:56 AM 79.0 °F - 68.0 °F 69% 29.82 in 10.0 mi SSW 12.7 mph - N/A   Clear
9:56 AM 84.9 °F 87.6 °F 66.9 °F 55% 29.81 in 10.0 mi West 11.5 mph - N/A   Clear
10:56 AM 86.0 °F 88.8 °F 66.9 °F 53% 29.80 in 10.0 mi West 10.4 mph - N/A   Clear
11:56 AM 89.1 °F 92.9 °F 68.0 °F 50% 29.78 in 10.0 mi West 6.9 mph - N/A   Clear
12:56 PM 91.9 °F 95.9 °F 68.0 °F 45% 29.76 in 10.0 mi SW 11.5 mph - N/A   Clear
1:56 PM 90.0 °F 93.6 °F 68.0 °F 48% 29.76 in 10.0 mi WSW 10.4 mph - N/A   Clear
2:56 PM 91.0 °F 95.2 °F 68.0 °F 47% 29.75 in 10.0 mi WNW 8.1 mph - N/A   Clear
3:56 PM 91.9 °F 96.9 °F 69.1 °F 47% 29.75 in 10.0 mi WNW 11.5 mph 19.6 mph N/A   Scattered Clouds
4:56 PM 91.0 °F 95.6 °F 69.1 °F 48% 29.74 in 10.0 mi WNW 12.7 mph - N/A   Clear
5:56 PM 90.0 °F 93.6 °F 68.0 °F 48% 29.74 in 10.0 mi NW 13.8 mph - N/A   Clear
6:56 PM 89.1 °F 92.1 °F 66.9 °F 48% 29.73 in 10.0 mi WNW 16.1 mph 24.2 mph N/A   Clear
7:56 PM 87.1 °F 90.6 °F 68.0 °F 53% 29.73 in 10.0 mi WNW 13.8 mph - N/A   Clear
8:56 PM 82.9 °F 85.4 °F 66.9 °F 58% 29.75 in 10.0 mi WNW 12.7 mph - N/A   Clear
9:56 PM 79.0 °F - 64.9 °F 62% 29.76 in 10.0 mi WNW 9.2 mph - N/A   Clear
10:56 PM 77.0 °F - 64.0 °F 64% 29.77 in 10.0 mi West 9.2 mph - N/A   Clear
11:56 PM 75.9 °F - 63.0 °F 64% 29.78 in 10.0 mi WNW 15.0 mph - N/A   Clear